Weather History for Bloomington, IN

Change the Weather History Date:

Wednesday, July 4, 2012

  Actual Average Record
Temperature  
Mean Temperature 87 °F 74 °F  
Max Temperature 101 °F 84 °F 101 °F (2012)
Min Temperature 73 °F 64 °F 53 °F (2014)
Degree Days  
Heating Degree Days 0 0  
Month to date heating degree days 0 0  
Since 1 June heating degree days 22 15  
Since 1 July heating degree days 0 0  
Cooling Degree Days 22 9  
Month to date cooling degree days 73 36  
Year to date cooling degree days 522 326  
Since 1 June cooling degree days 321 244  
Growing Degree Days 36 (Base 50)    
Moisture  
Dew Point 67 °F    
Average Humidity 58    
Maximum Humidity 84    
Minimum Humidity 31    
Precipitation  
Precipitation 0.00 in 0.15 in 1.36 in (2004)
Month to date precipitation 0.10 0.61  
Year to date precipitation 12.05 25.39  
Sea Level Pressure  
Sea Level Pressure 29.91 in    
Wind  
Wind Speed 5 mph (WSW)    
Max Wind Speed 13 mph    
Max Gust Speed 18 mph    
Visibility 10 miles    
Events      
T = Trace of Precipitation, MM = Missing Value Source: NWS Daily Summary

Daily Weather History Graph

Daily Weather History Graph

Search for Another Location

Airport:

Trip Planner

Search our weather history database for the weather conditions in past years. The results will help you decide how hot, cold, wet, or windy it might be!

Date:

Astronomy

Jul. 04, 2012 Rise Set
Actual Time 6:25 AM EDT 9:15 PM EDT
Civil Twilight 5:53 AM EDT 9:47 PM EDT
Nautical Twilight 5:13 AM EDT 10:27 PM EDT
Astronomical Twilight 4:27 AM EDT 11:13 PM EDT
Moon 9:55 PM EDT (7/4) 7:27 AM EDT (7/4)
Length of Visible Light 15h 53m
Length of Day
14h 50m
Full, 99% of the Moon is Illuminated
Jul 4
Full
Jul 10
Last Quarter
Jul 19
New
Jul 26
First Quarter
Aug 1
Full

Hourly Weather History & Observations

Time (EDT) Temp. Heat Index Dew Point Humidity Pressure Visibility Wind Dir Wind Speed Gust Speed Precip Events Conditions
12:53 AM 77.0 °F - 69.1 °F 76% 29.91 in 10.0 mi SW 3.5 mph - N/A   Clear
1:53 AM 75.9 °F - 69.1 °F 79% 29.90 in 10.0 mi WSW 3.5 mph - N/A   Clear
2:53 AM 77.0 °F - 69.1 °F 76% 29.90 in 10.0 mi WSW 6.9 mph - N/A   Clear
3:53 AM 75.0 °F - 69.1 °F 82% 29.91 in 10.0 mi WSW 5.8 mph - N/A   Clear
4:53 AM 73.9 °F - 68.0 °F 82% 29.91 in 10.0 mi WSW 4.6 mph - N/A   Clear
5:53 AM 73.0 °F - 68.0 °F 84% 29.92 in 10.0 mi WSW 4.6 mph - N/A   Clear
6:53 AM 73.0 °F - 68.0 °F 84% 29.93 in 10.0 mi Calm Calm - N/A   Clear
7:53 AM 78.1 °F - 69.1 °F 74% 29.94 in 10.0 mi Calm Calm - N/A   Clear
8:53 AM 81.0 °F 84.4 °F 70.0 °F 69% 29.94 in 10.0 mi West 5.8 mph - N/A   Clear
9:53 AM 84.0 °F 89.0 °F 71.1 °F 65% 29.95 in 10.0 mi Calm Calm - N/A   Clear
10:53 AM 88.0 °F 93.8 °F 71.1 °F 57% 29.95 in 10.0 mi Variable 3.5 mph - N/A   Clear
11:53 AM 93.9 °F 99.1 °F 69.1 °F 44% 29.94 in 10.0 mi SW 8.1 mph - N/A   Clear
12:53 PM 96.1 °F 99.9 °F 66.9 °F 38% 29.94 in 10.0 mi WSW 9.2 mph - N/A   Clear
1:53 PM 98.1 °F 101.2 °F 64.9 °F 34% 29.93 in 10.0 mi West 8.1 mph 18.4 mph N/A   Scattered Clouds
2:53 PM 99.0 °F 102.3 °F 64.9 °F 33% 29.91 in 10.0 mi West 8.1 mph - N/A   Mostly Cloudy
3:53 PM 98.1 °F 101.2 °F 64.9 °F 34% 29.90 in 10.0 mi Variable 4.6 mph - N/A   Mostly Cloudy
4:53 PM 100.0 °F 103.0 °F 64.0 °F 31% 29.88 in 10.0 mi NW 6.9 mph - N/A   Partly Cloudy
5:53 PM 100.0 °F 103.0 °F 64.0 °F 31% 29.88 in 10.0 mi Variable 5.8 mph - N/A   Partly Cloudy
6:53 PM 98.1 °F 100.7 °F 64.0 °F 33% 29.87 in 10.0 mi Variable 4.6 mph - N/A   Clear
7:53 PM 96.1 °F 98.8 °F 64.9 °F 36% 29.87 in 10.0 mi Variable 4.6 mph - N/A   Clear
8:53 PM 91.9 °F 95.4 °F 66.9 °F 44% 29.87 in 10.0 mi West 5.8 mph - N/A   Mostly Cloudy
10:53 PM 84.0 °F 87.0 °F 68.0 °F 58% 29.92 in 10.0 mi Calm Calm - N/A   Clear
11:53 PM 82.0 °F 84.9 °F 68.0 °F 62% 29.92 in 10.0 mi West 3.5 mph - N/A   Clear